Location: Fort Worth, Tx
(32.7431°N, 97.3695°W)
Time: 19:18:15
(UTC-04:00)

Transit 4A - Pass Details

Date: 04 March 2024
Orbit: 871 x 972 km, 66.8° (Epoch: 22 April)

Event Time Altitude Azimuth Distance (km) Brightness Sun altitude
Rises 08:57:03 0° 349° (NNW) 3,476 10.6 12.4°
Reaches altitude 10° 09:00:14 10° 5° (N) 2,526 10.1 13.0°
Maximum altitude 09:04:30 21° 53° (NE) 1,877 10.2 13.9°
Drops below altitude 10° 09:08:44 10° 100° (E) 2,515 12.8 14.8°
Sets 09:11:51 0° 116° (ESE) 3,455 12.7 15.4°
